Location: Unspecified
(0.0000°N, 0.0000°E)
Time: 13:41:47
(UTC+00:00)

Vanguard 1 - Pass Details

Date: 10 February 2018
Orbit: 650 x 3833 km, 34.3° (Epoch: 25 May)

Event Time Altitude Azimuth Distance (km) Brightness Sun altitude
Exits shadow 01:17:11 20° 109° (ESE) 4,188 13.3 -68.8°
Drops below altitude 10° 01:21:24 10° 114° (ESE) 5,404 14.0 -68.0°
Sets 01:26:52 0° 118° (ESE) 6,912 14.7 -67.0°
